Knoxville, TN

4:17 AM EST on November 13, 2019 (GMT -0500)
McGhee Tyson

Weather History for KTYS - September, 2019

Change the Weather History Date:

Saturday, September 28, 2019

  Actual Average Record
Temperature  
Mean Temperature 80 °F 66 °F  
Max Temperature 91 °F 77 °F 93 °F (1939)
Min Temperature 69 °F 55 °F 37 °F (1985)
Degree Days  
Heating Degree Days 0 2  
Month to date heating degree days 0 17  
Since 1 July heating degree days 0 17  
Cooling Degree Days 15 3  
Month to date cooling degree days 375 199  
Year to date cooling degree days 1828 1480  
Growing Degree Days 30 (Base 50)    
Moisture  
Dew Point 66 °F    
Average Humidity 64    
Maximum Humidity 87    
Minimum Humidity 41    
Precipitation  
Precipitation 0.00 in 0.11 in 1.78 in (1872)
Month to date precipitation 0.03 3.02  
Year to date precipitation 48.26 36.62  
Snow  
Snow 0.00 in 0.00 in - ()
Month to date snowfall 0.0 0.0  
Since 1 July snowfall 0.0 0.0  
Since 1 September snowfall 0.0 0.0  
Snow Depth 0.00 in    
Sea Level Pressure  
Sea Level Pressure 30.07 in    
Wind  
Wind Speed 4 mph ()    
Max Wind Speed 12 mph    
Max Gust Speed 14 mph    
Visibility 10.0 miles    
Events      
T = Trace of Precipitation, MM = Missing Value Source: Averaged Metar Reports

Daily Weather History Graph

Daily Weather History Graph

Search for Another Location

Airport or City:

Astronomy

Sep. 28, 2019 Rise Set
Actual Time 7:28 AM EDT 7:24 PM EDT
Civil Twilight 7:02 AM EDT 7:49 PM EDT
Nautical Twilight 6:33 AM EDT 8:19 PM EDT
Astronomical Twilight 6:03 AM EDT 8:49 PM EDT
Moon 7:06 AM EDT (9/28) 7:48 PM EDT (9/28)
Length of Visible Light 12h 46m
Length of Day
11h 55m
Waning Crescent, 0% of the Moon is Illuminated
Sep 28
Waning Crescent
Sep 28
New
Oct 5
First Quarter
Oct 13
Full
Oct 21
Last Quarter

Hourly Weather History & Observations

Time (EDT) Temp. Heat Index Dew Point Humidity Pressure Visibility Wind Dir Wind Speed Gust Speed Precip Events Conditions
12:53 AM 75.9 °F - 66.9 °F 74% 29.96 in 10.0 mi West 11.5 mph - N/A   Scattered Clouds
1:53 AM 75.0 °F - 66.0 °F 73% 29.95 in 10.0 mi Calm Calm - N/A   Clear
2:53 AM 75.0 °F - 66.0 °F 73% 29.98 in 10.0 mi WNW 9.2 mph - N/A   Clear
3:53 AM 73.9 °F - 66.0 °F 76% 29.99 in 10.0 mi Calm Calm - N/A   Partly Cloudy
4:53 AM 73.0 °F - 66.0 °F 79% 30.02 in 10.0 mi Calm Calm - N/A   Scattered Clouds
5:53 AM 71.1 °F - 66.9 °F 87% 30.03 in 10.0 mi NE 4.6 mph - N/A   Mostly Cloudy
6:53 AM 73.0 °F - 66.0 °F 79% 30.04 in 10.0 mi North 4.6 mph - N/A   Overcast
7:53 AM 72.0 °F - 66.9 °F 84% 30.06 in 10.0 mi NW 4.6 mph - N/A   Scattered Clouds
8:53 AM 73.9 °F - 66.9 °F 79% 30.09 in 10.0 mi Calm Calm - N/A   Scattered Clouds
9:53 AM 77.0 °F - 66.9 °F 71% 30.11 in 10.0 mi WNW 4.6 mph - N/A   Scattered Clouds
10:53 AM 79.0 °F - 66.9 °F 66% 30.13 in 10.0 mi SW 3.5 mph - N/A   Mostly Cloudy
11:53 AM 82.9 °F 85.8 °F 68.0 °F 60% 30.13 in 10.0 mi WSW 5.8 mph - N/A   Mostly Cloudy
12:53 PM 86.0 °F 88.8 °F 66.9 °F 53% 30.12 in 10.0 mi Variable 4.6 mph - N/A   Scattered Clouds
1:53 PM 88.0 °F 90.3 °F 66.0 °F 48% 30.11 in 10.0 mi WNW 9.2 mph - N/A   Scattered Clouds
2:53 PM 90.0 °F 92.4 °F 66.0 °F 45% 30.08 in 10.0 mi NW 3.5 mph - N/A   Scattered Clouds
3:53 PM 90.0 °F 92.4 °F 66.0 °F 45% 30.07 in 10.0 mi Variable 5.8 mph - N/A   Scattered Clouds
4:53 PM 91.0 °F 93.0 °F 64.9 °F 42% 30.06 in 10.0 mi West 3.5 mph - N/A   Scattered Clouds
5:53 PM 90.0 °F 91.3 °F 64.0 °F 42% 30.08 in 10.0 mi West 6.9 mph - N/A   Scattered Clouds
6:53 PM 88.0 °F 89.3 °F 64.0 °F 45% 30.08 in 10.0 mi SW 5.8 mph - N/A   Mostly Cloudy
7:53 PM 84.9 °F 86.6 °F 64.9 °F 51% 30.08 in 10.0 mi WSW 4.6 mph - N/A   Mostly Cloudy
8:53 PM 81.0 °F 83.0 °F 66.0 °F 60% 30.08 in 10.0 mi SW 4.6 mph - N/A   Mostly Cloudy
9:53 PM 79.0 °F - 66.0 °F 64% 30.09 in 10.0 mi Calm Calm - N/A   Mostly Cloudy
10:53 PM 77.0 °F - 64.9 °F 66% 30.12 in 10.0 mi SW 5.8 mph - N/A   Mostly Cloudy
11:53 PM 78.1 °F - 64.9 °F 64% 30.12 in 10.0 mi Calm Calm - N/A   Mostly Cloudy